Flag for U.S.A. Weather past 2 weeks in Concord, California, U.S.A.

Now
74 °F

Partly sunny.


Feels Like: 77 °F
Forecast: 57 / 75 °F
Wind: 10 mph from Northwest

Location: Buchanan Field

Current Time: Oct 23, 2014 at 2:27:29 PM

Latest Report: Oct 23, 2014 at 1:53 PM


Visibility: 10 mi

Pressure: 29.98 "Hg

Humidity: 52%

Dew point: 55 °F

Location of ConcordLocation

Historic Weather in Concord — Graph

°F

Concord temperature yesterday

Maximum temperature yesterday: 75 °F (at 2:53 PM)
Minimum temperature yesterday: 51 °F (at 5:53 AM)
Average temperature yesterday: 62 °F

Past Weeks' High & Low Weather Summary

 TemperatureHumidityPressure
High94 °F (Oct 8, 3:53 PM)93% (Oct 9, 6:53 AM)30.07 "Hg (Oct 9, 6:53 AM)
Low49 °F (Oct 21, 7:53 AM)6% (Oct 12, 2:53 PM)29.76 "Hg (Oct 8, 5:53 PM)
Average66 °F62%29.92 "Hg
* Reported Oct 8 12:53 PM — Oct 23 12:53 PM, Concord, Weather by CustomWeather, © 2014

Note: Actual official high and low records may vary slightly from our data, if they occured in-between our weather recording intervals... More about our weather records

Advertising

Concord weather history for previous 24 hours

 ConditionsComfort  
Time TempWeatherWind HumidityBarometerVisibility
12:53 PM
Oct 23
74 °FPartly sunny.6 mph53%30.01 "Hg10 mi
11:53 AM69 °FPartly sunny.3 mph66%30.02 "Hg10 mi
10:53 AM66 °FBroken clouds.7 mph73%30.03 "Hg10 mi
9:53 AM64 °FSunny.6 mph75%30.03 "Hg10 mi
8:53 AM61 °FSunny.6 mph81%30.02 "Hg10 mi
7:53 AM59 °FPassing clouds.5 mph84%30.01 "Hg10 mi
6:53 AM58 °FClear.3 mph87%30.00 "Hg10 mi
5:53 AM59 °FClear.6 mph84%29.98 "Hg10 mi
4:53 AM58 °FPassing clouds.5 mph87%29.98 "Hg10 mi
3:53 AM59 °FPassing clouds.No wind84%29.99 "Hg10 mi
2:53 AM59 °FClear.3 mph84%29.99 "Hg10 mi
1:53 AM59 °FClear.7 mph84%29.99 "Hg10 mi
12:53 AM59 °FClear.6 mph84%29.98 "Hg10 mi
11:53 PM
Oct 22
62 °FClear.5 mph75%30.00 "Hg10 mi
10:53 PM63 °FClear.7 mph75%30.00 "Hg10 mi
9:53 PM63 °FClear.5 mph73%30.00 "Hg10 mi
8:53 PM64 °FClear.5 mph73%29.99 "Hg10 mi
7:53 PM67 °FClear.14 mph63%29.98 "Hg10 mi
6:53 PM69 °FSunny.6 mph57%29.97 "Hg10 mi
5:53 PM72 °FSunny.9 mph48%29.96 "Hg10 mi
4:53 PM75 °FSunny.10 mph42%29.96 "Hg10 mi
3:53 PM75 °FSunny.10 mph37%29.96 "Hg10 mi
2:53 PM75 °FSunny.8 mph37%29.98 "Hg10 mi
Weather by CustomWeather, © 2014

See weather overviewHow to use our weather pages